Weather History for Phuket, Thailand

Change the Weather History Date:

Thursday, January 10, 2013

  Actual Average Record
Temperature  
Mean Temperature 80 °F -  
Max Temperature 87 °F 90 °F 95 °F (2001)
Min Temperature 74 °F 74 °F 68 °F (2014)
Cooling Degree Days 16    
Growing Degree Days 30 (Base 50)    
Moisture  
Dew Point 74 °F    
Average Humidity 76    
Maximum Humidity 95    
Minimum Humidity 40    
Precipitation  
Precipitation 0.00 in 0.05 in - ()
Sea Level Pressure  
Sea Level Pressure 29.85 in    
Wind  
Wind Speed 3 mph ()    
Max Wind Speed 9 mph    
Max Gust Speed -    
Visibility 4.9 miles    
Events      
Averages and records for this station are not official NWS values.
T = Trace of Precipitation, MM = Missing Value Source: Averaged Metar Reports

Daily Weather History Graph

Daily Weather History Graph

Search for Another Location

Airport:

Trip Planner

Search our weather history database for the weather conditions in past years. The results will help you decide how hot, cold, wet, or windy it might be!

Date:

Astronomy

Jan. 10, 2013 Rise Set
Actual Time 6:43 AM ICT 6:24 PM ICT
Civil Twilight 6:21 AM ICT 6:47 PM ICT
Nautical Twilight 5:55 AM ICT 7:13 PM ICT
Astronomical Twilight 5:29 AM ICT 7:39 PM ICT
Moon 4:52 AM ICT (1/10) 4:56 PM ICT (1/10)
Length of Visible Light 12h 26m
Length of Day
11h 41m
Waning Crescent, 4% of the Moon is Illuminated
Jan 10
Waning Crescent
Jan 12
New
Jan 19
First Quarter
Jan 27
Full
Feb 3
Last Quarter

Hourly Weather History & Observations

Time (ICT) Temp. Heat Index Dew Point Humidity Pressure Visibility Wind Dir Wind Speed Gust Speed Precip Events Conditions
12:00 AM 77.0 °F - 75.2 °F 94% 29.89 in 5.0 mi Calm Calm - N/A   Mostly Cloudy
1:00 AM 80 °F - 77 °F 86% 29.84 in 5 mi Calm Calm - -   Mist
1:00 AM 77.0 °F - 75.2 °F 94% 29.86 in 5.0 mi Calm Calm - N/A   Mostly Cloudy
2:00 AM 77.0 °F - 73.4 °F 89% 29.86 in 5.0 mi Calm Calm - N/A   Mostly Cloudy
3:00 AM 75.2 °F - 73.4 °F 94% 29.83 in 5.0 mi Calm Calm - N/A   Mostly Cloudy
4:00 AM 75.2 °F - 73.4 °F 94% 29.83 in 5.0 mi Calm Calm - N/A   Mostly Cloudy
5:30 AM - - - N/A% 29.83 in 5.0 mi Calm Calm - N/A   Mostly Cloudy
6:00 AM 75.2 °F - 73.4 °F 94% 29.83 in 3.1 mi Calm Calm - N/A   Mostly Cloudy
6:30 AM 75.2 °F - 71.6 °F 89% 29.86 in 3.1 mi Calm Calm - N/A   Mostly Cloudy
7:00 AM 75 °F - 74 °F 95% 29.83 in 3 mi Calm Calm - -   Mist
7:00 AM 75.2 °F - 73.4 °F 94% 29.86 in 3.1 mi Calm Calm - N/A   Mostly Cloudy
7:30 AM 75.2 °F - 73.4 °F 94% 29.86 in 3.1 mi Calm Calm - N/A   Mostly Cloudy
8:00 AM 77.0 °F - 75.2 °F 94% 29.89 in 4.3 mi Calm Calm - N/A   Mostly Cloudy
8:30 AM 80.6 °F 86.2 °F 75.2 °F 84% 29.89 in 5.6 mi East 4.6 mph - N/A   Mostly Cloudy
9:00 AM 82.4 °F 89.5 °F 75.2 °F 79% 29.89 in 5.0 mi East 5.8 mph - N/A   Mostly Cloudy
9:30 AM 84.2 °F 92.3 °F 75.2 °F 74% 29.92 in 5.0 mi East 4.6 mph - N/A   Mostly Cloudy
10:00 AM 86.0 °F 93.4 °F 73.4 °F 66% 29.92 in 5.0 mi West 4.6 mph - N/A   Mostly Cloudy
10:30 AM 86.0 °F 93.4 °F 73.4 °F 66% 29.89 in 5.0 mi WNW 4.6 mph - N/A   Scattered Clouds
11:00 AM 102.2 °F 114.4 °F 73.4 °F 40% 29.89 in 5.6 mi WNW 4.6 mph - N/A   Scattered Clouds
11:30 AM 86.0 °F 93.4 °F 73.4 °F 66% 29.89 in 5.6 mi WNW 4.6 mph - N/A   Scattered Clouds
12:00 PM 86.0 °F 93.4 °F 73.4 °F 66% 29.89 in 5.6 mi WNW 4.6 mph - N/A   Scattered Clouds
12:30 PM 86.0 °F 93.4 °F 73.4 °F 66% 29.86 in 5.0 mi NW 4.6 mph - N/A   Mostly Cloudy
1:00 PM 87 °F - 74 °F 57% 29.83 in 5 mi West 4.6 mph - -   Mist
1:00 PM 86.0 °F 93.4 °F 73.4 °F 66% 29.86 in 5.0 mi West 4.6 mph - N/A   Mostly Cloudy
1:30 PM 86.0 °F 93.4 °F 73.4 °F 66% 29.83 in 5.0 mi Variable 4.6 mph - N/A   Mostly Cloudy
2:30 PM 86.0 °F 93.4 °F 73.4 °F 66% 29.80 in 5.0 mi Variable 5.8 mph - N/A   Mostly Cloudy
3:00 PM 87.8 °F 95.6 °F 73.4 °F 62% 29.80 in 5.0 mi Variable 6.9 mph - N/A   Mostly Cloudy
3:30 PM 86.0 °F 93.4 °F 73.4 °F 66% 29.80 in 5.6 mi Variable 6.9 mph - N/A   Mostly Cloudy
4:00 PM 86.0 °F 93.4 °F 73.4 °F 66% 29.80 in 5.6 mi Variable 5.8 mph - N/A   Mostly Cloudy
4:30 PM 87.8 °F 95.6 °F 73.4 °F 62% 29.80 in 5.6 mi NW 8.1 mph - N/A   Mostly Cloudy
5:00 PM 86.0 °F 93.4 °F 73.4 °F 66% 29.80 in 5.6 mi Variable 5.8 mph - N/A   Mostly Cloudy
5:30 PM 84.2 °F 90.9 °F 73.4 °F 70% 29.80 in 5.6 mi NW 6.9 mph - N/A   Mostly Cloudy
6:00 PM 84.2 °F 90.9 °F 73.4 °F 70% 29.80 in 5.0 mi Variable 4.6 mph - N/A   Mostly Cloudy
6:30 PM 82.4 °F 88.2 °F 73.4 °F 74% 29.80 in 5.0 mi NNW 6.9 mph - N/A   Mostly Cloudy
7:00 PM 84 °F - 75 °F 69% 29.77 in 4 mi WNW 4.6 mph - -   Mist
7:00 PM 82.4 °F 88.2 °F 73.4 °F 74% 29.80 in 5.0 mi Variable 6.9 mph - N/A   Mostly Cloudy
7:30 PM 82.4 °F 88.2 °F 73.4 °F 74% 29.83 in 5.0 mi Variable 6.9 mph - N/A   Mostly Cloudy
8:00 PM 82.4 °F 88.2 °F 73.4 °F 74% 29.83 in 5.0 mi NNW 8.1 mph - N/A   Mostly Cloudy
8:30 PM 82.4 °F 88.2 °F 73.4 °F 74% 29.86 in 5.0 mi WNW 4.6 mph - N/A   Mostly Cloudy
9:00 PM 82.4 °F 88.2 °F 73.4 °F 74% 29.86 in 5.0 mi WNW 6.9 mph - N/A   Mostly Cloudy
9:30 PM 82.4 °F 87.2 °F 71.6 °F 70% 29.86 in 5.0 mi WNW 9.2 mph - N/A   Mostly Cloudy
10:00 PM 80.6 °F 85.4 °F 73.4 °F 79% 29.89 in 5.0 mi WNW 5.8 mph - N/A   Mostly Cloudy
10:30 PM 80.6 °F 85.4 °F 73.4 °F 79% 29.89 in 5.0 mi NNW 5.8 mph - N/A   Mostly Cloudy
11:00 PM 78.8 °F - 73.4 °F 83% 29.89 in 5.0 mi SE 5.8 mph - N/A   Mostly Cloudy
11:30 PM 78.8 °F - 73.4 °F 83% 29.89 in 5.0 mi Calm Calm - N/A   Mostly Cloudy